Weather Roundup
Issued by NWS

Home | Current Version | Previous Version | Graphics & Text | Print | Product List | Glossary Off
Versions: 1 2 3 4 5 6 7 8 9 10 11 12 13 14 15 16 17 18 19 20 21 22 23 24 25 26 27 28 29 30 31 32 33 34 35 36 37 38 39 40 41 42 43 44 45 46 47 48 49 50

000
NZUS93 KARX 041410
HRRWXR

CURRENT HOURLY OBSERVATIONS ACROSS
MUCH OF THE UPPER MISSISSIPPI VALLEY
NATIONAL WEATHER SERVICE LA CROSSE WI
900 AM CDT TUE AUG 04 2015


...SOUTHEAST MINNESOTA...


CITY           SKY/WX    TMP DP  RH WIND       PRES   REMARKS
ROCHESTER      MOSUNNY   66  58  75 SW6       30.05R
ROCHESTER/MAYO FAIR      65  55  67 CALM      30.05R
WINONA         SUNNY     66  57  72 CALM      30.02R
AUSTIN         PTSUNNY   66  55  68 CALM      30.04S
ALBERT LEA     PTSUNNY   68  57  68 CALM      30.04S
DODGE CENTER   MOSUNNY   64  57  77 SW5       30.04S
PRESTON        MOSUNNY   65  52  61 CALM      30.04S
OWATONNA       MOSUNNY   63  55  77 CALM      30.05R
FARIBAULT      MOSUNNY   64  61  88 CALM      30.04S
$$

...ELSEWHERE IN MINNESOTA...


CITY           SKY/WX    TMP DP  RH WIND       PRES   REMARKS
MINNEAPOLIS    MOSUNNY   70  55  59 W7        30.02R
INTNL FALLS    MOSUNNY   59  51  75 N12       29.97R
DULUTH         SUNNY     63  52  67 NW6       29.97R
RED WING       SUNNY     66  55  68 W3        30.01R
REDWOOD FALLS  PTSUNNY   68  53  58 SW7       30.03F
MANKATO        MOSUNNY   63  54  72 W3        30.04F
WORTHINGTON    CLOUDY    64  55  72 SE3       30.06S
FAIRMONT       PTSUNNY   64  55  72 CALM      30.05R
$$

...SOUTHWEST WISCONSIN...


CITY           SKY/WX    TMP DP  RH WIND       PRES   REMARKS
LA CROSSE      SUNNY     67  57  70 S5        30.01R
PRAIRIE DU CHI MOSUNNY   65  53  65 CALM      30.02R
BOSCOBEL       MOSUNNY   68  57  68 W3        30.01R
LONE ROCK      SUNNY     66  56  70 W5        30.01R
PLATTEVILLE    SUNNY     66  59  77 W5        30.02R
FORT MC COY    SUNNY     65  54  67 SW3       30.02R
CAMP DOUGLAS   MOSUNNY   68  59  73 VRB6      29.99S
VIROQUA        FAIR      66  56  69 W3        30.03R
WIS DELLS      SUNNY     67  53  59 NW5       29.99R
$$

...ELSEWHERE IN WISCONSIN...


CITY           SKY/WX    TMP DP  RH WIND       PRES   REMARKS
MILWAUKEE      MOSUNNY   74  52  46 W9        29.95R
MADISON        PTSUNNY   69  57  65 NW9       29.98R
GREEN BAY      MOSUNNY   67  58  72 W7        29.94R
EAU CLAIRE     SUNNY     65  55  70 VRB5      30.00R
BLACK RVR FLS  FAIR      67  52  60 W3        30.00S
MEDFORD        SUNNY     64  53  69 NW9       29.99R
WAUSAU         SUNNY     66  52  60 NW8       29.96R
WIS RAPIDS     SUNNY     67  52  58 NW7       30.01R
MARSHFIELD     SUNNY     67  52  58 W7        30.00R
RICE LAKE      SUNNY     64  56  77 SW6       30.02R
$$

...NORTHEAST IOWA...


CITY           SKY/WX    TMP DP  RH WIND       PRES   REMARKS
DECORAH        MOSUNNY   63  55  77 CALM      30.03R
MASON CITY     PTSUNNY   67  59  75 W3        30.06R
CHARLES CITY   PTSUNNY   64  61  88 CALM      30.05R
OELWEIN        MOSUNNY   66  59  77 N6        30.04R
$$

...ELSEWHERE IN IOWA...


CITY           SKY/WX    TMP DP  RH WIND       PRES   REMARKS
DES MOINES     CLOUDY    72  61  68 N5        30.03R
IOWA CITY      PTSUNNY   68  61  78 W3        30.02R
FORT DODGE     CLOUDY    66  59  77 NE6       30.06R
$$

...NORTHERN ILLINOIS...


CITY           SKY/WX    TMP DP  RH WIND       PRES   REMARKS
CHICAGO-OHARE  PTSUNNY   73  56  54 SW3       29.97R
CHICAGO-MIDWAY PTSUNNY   74  54  49 W6        29.97R
MOLINE         PTSUNNY   72  62  71 W3        30.01R
ROCKFORD       PTSUNNY   70  57  63 SW5       30.00R
PEORIA         MOSUNNY   73  59  61 W3        30.02R
$$

NOTE: "FAIR" INDICATES FEW OR NO CLOUDS BELOW 12,000 FEET WITH NO
SIGNIFICANT WEATHER AND/OR OBSTRUCTIONS TO VISIBILITY. WIND
SPEEDS ARE IN MILES-PER-HOUR.



USA.gov is the U.S. government's official web portal to all federal, state and local government web resources and services.